Location: Caixon
(43.4106°N, 0.0273°E)
Time: 16:20:03
(UTC+00:00)

GP-B - Pass Details

Date: 16 October 2021
Orbit: 630 x 635 km, 89.8° (Epoch: 28 November)

Event Time Altitude Azimuth Distance (km) Brightness Sun altitude
Exits shadow 03:44:01 26° 145° (SE) 1,259 4.7 -28.0°
Maximum altitude 03:46:14 49° 83° (E) 822 3.9 -27.6°
Drops below altitude 10° 03:50:32 10° 9° (N) 2,031 5.9 -26.9°
Sets 03:52:49 0° 4° (N) 2,945 6.8 -26.5°
